Weather in Karagay

Russia / Altai Republic     50°23′42″N   84°37′11″E
temp.,
°C
wind,
m/s
gust,
m/s
humid.,
%
clouds,
%
prec.,
mm/h
press.,
hPa
HPBL,
m
14 may, fri
fri1401:00+3s2286100 0.1 101486
04:00+3wsw0197100 0.8 1014488
07:00+2sw11100100 5.0 1017198
10:00+2nw1098100 2.3 1019152
13:00+4nw1189100 2.5 1019426
16:00+8wnw116227 0.1 10181125
19:00+7n3476100 0.4 1020660
22:00+4n228679 0.1 102316
15 may, sat
sat1501:00+5ne119074 0.3 1024116
04:00+3ene1191100 0.0 102511
07:00+3ese118836 0.0 102661
10:00+8e226787 0.0 1024797
13:00+12ene23457 0.0 10221229
16:00+14ene22375 0.0 10211700
19:00+14ene22415 0.0 10211683
22:00+9e11585 0.0 102210
16 may, sun
sun1601:00+7ne01664 0.0 102210
04:00+6se01712 0.0 102210
07:00+7ne00710 0.0 102234
10:00+12e11530 0.0 1020583
13:00+16nw12382 0.0 10181644
16:00+17nw123593 0.0 10162343
19:00+12n3476100 1.8 1019397
22:00+8ese008897 2.9 102083
17 may, mon
mon1701:00+7wnw22885 2.9 101912
04:00+7wsw118463 0.0 101811
07:00+9wnw227794 0.1 101777
10:00+13w37616 0.2 10161070
13:00+16wnw665541 1.2 10151683
16:00+16wnw554798 0.8 10152150
19:00+15w245551 0.8 1015784
22:00+10nnw117492 0.1 101614
18 may, tue
tue1801:00+8n11881 0.1 101711
04:00+6nne11905 0.0 101710
07:00+8n00860 0.0 101760
10:00+13w11595 0.0 1015565
13:00+17wnw244085 0.0 10132341
16:00+18wnw453856 0.0 10122331
19:00+13wsw226590 0.6 1013250
22:00+10sw4790100 1.8 1014333